Time,TemperatureF,DewpointF,PressureIn,WindDirection,WindDirectionDegrees,WindSpeedMPH,WindSpeedGustMPH,Humidity,HourlyPrecipIn,Conditions,Clouds,dailyrainin,SolarRadiationWatts/m^2,SoftwareType,DateUTC
2013-04-22 11:52:00,60.0,51.0,29.95,West,262,7.0,9.0,70,-99.99,,,-99.99,726.000000,,2013-04-22 18:52:00,
2013-04-22 12:01:00,59.0,50.0,29.95,WSW,258,6.0,8.0,72,-99.99,,,-99.99,743.000000,,2013-04-22 19:01:00,
2013-04-22 12:11:00,60.0,51.0,29.95,WSW,255,5.0,7.0,73,-99.99,,,-99.99,759.000000,,2013-04-22 19:11:00,
2013-04-22 12:21:00,60.0,51.0,29.95,West,262,7.0,9.0,72,-99.99,,,-99.99,775.000000,,2013-04-22 19:21:00,
2013-04-22 12:32:00,59.0,51.0,29.95,WSW,253,7.0,10.0,73,-99.99,,,-99.99,788.000000,,2013-04-22 19:32:00,
2013-04-22 12:42:00,59.0,50.0,29.95,WSW,245,7.0,9.0,72,-99.99,,,-99.99,800.000000,,2013-04-22 19:42:00,
2013-04-22 12:52:00,59.0,50.0,29.95,WSW,245,7.0,9.0,72,-99.99,,,-99.99,800.000000,,2013-04-22 19:52:00,
2013-04-22 14:20:00,63.0,49.0,29.91,NW,309,6.0,8.0,60,-99.99,,,-99.99,806.000000,,2013-04-22 21:20:00,
2013-04-22 14:21:00,62.0,50.0,29.91,West,275,5.0,7.0,63,-99.99,,,-99.99,835.000000,,2013-04-22 21:21:00,
2013-04-22 14:32:00,63.0,50.0,29.91,WNW,302,5.0,7.0,63,-99.99,,,-99.99,830.000000,,2013-04-22 21:32:00,
2013-04-22 14:42:00,63.0,49.0,29.91,West,280,6.0,8.0,61,-99.99,,,-99.99,823.000000,,2013-04-22 21:42:00,
2013-04-22 14:52:00,63.0,49.0,29.91,WNW,300,6.0,10.0,60,-99.99,,,-99.99,815.000000,,2013-04-22 21:52:00,
2013-04-22 15:02:00,63.0,49.0,29.91,NW,309,6.0,8.0,60,-99.99,,,-99.99,806.000000,,2013-04-22 22:02:00,
2013-04-22 15:12:00,63.0,49.0,29.91,NW,309,6.0,8.0,60,-99.99,,,-99.99,806.000000,,2013-04-22 22:12:00,
2013-04-22 15:33:00,66.0,49.0,29.90,NW,322,5.0,7.0,54,-99.99,,,-99.99,771.000000,,2013-04-22 22:33:00,
2013-04-22 15:42:00,66.0,49.0,29.90,NW,315,5.0,8.0,53,-99.99,,,-99.99,756.000000,,2013-04-22 22:42:00,
2013-04-22 15:52:00,66.0,50.0,29.90,WNW,284,6.0,8.0,55,-99.99,,,-99.99,739.000000,,2013-04-22 22:52:00,
2013-04-22 16:02:00,63.0,51.0,29.90,West,263,7.0,9.0,65,-99.99,,,-99.99,721.000000,,2013-04-22 23:02:00,
2013-04-22 16:11:00,60.0,50.0,29.90,WSW,258,7.0,10.0,70,-99.99,,,-99.99,701.000000,,2013-04-22 23:11:00,
2013-04-22 16:20:00,59.0,51.0,29.88,NW,314,2.0,6.0,73,-99.99,,,-99.99,588.000000,,2013-04-22 23:20:00,
2013-04-22 16:21:00,58.0,50.0,29.89,WSW,258,8.0,9.0,74,-99.99,,,-99.99,681.000000,,2013-04-22 23:21:00,
2013-04-22 16:32:00,58.0,50.0,29.89,West,263,7.0,8.0,75,-99.99,,,-99.99,659.000000,,2013-04-22 23:32:00,
2013-04-22 16:42:00,58.0,50.0,29.89,West,270,5.0,8.0,75,-99.99,,,-99.99,636.000000,,2013-04-22 23:42:00,
2013-04-22 16:52:00,58.0,50.0,29.89,West,277,4.0,6.0,74,-99.99,,,-99.99,613.000000,,2013-04-22 23:52:00,
2013-04-22 17:01:00,59.0,51.0,29.88,NW,314,2.0,6.0,73,-99.99,,,-99.99,588.000000,,2013-04-23 00:01:00,
2013-04-22 17:12:00,59.0,51.0,29.88,NW,314,2.0,6.0,73,-99.99,,,-99.99,588.000000,,2013-04-23 00:12:00,
2013-04-22 17:42:00,62.0,51.0,29.87,West,263,3.0,5.0,66,-99.99,,,-99.99,483.000000,,2013-04-23 00:42:00,
2013-04-22 17:51:00,63.0,51.0,29.87,West,280,2.0,4.0,65,-99.99,,,-99.99,454.000000,,2013-04-23 00:51:00,
2013-04-22 18:01:00,62.0,51.0,29.86,West,267,5.0,8.0,67,-99.99,,,-99.99,425.000000,,2013-04-23 01:01:00,
2013-04-22 18:11:00,60.0,51.0,29.86,WSW,254,3.0,6.0,71,-99.99,,,-99.99,394.000000,,2013-04-23 01:11:00,
2013-04-22 18:21:00,60.0,51.0,29.86,West,262,4.0,7.0,71,-99.99,,,-99.99,364.000000,,2013-04-23 01:21:00,
2013-04-22 18:32:00,58.0,50.0,29.86,West,265,5.0,8.0,73,-99.99,,,-99.99,333.000000,,2013-04-23 01:32:00,
2013-04-22 18:42:00,57.0,49.0,29.86,West,274,5.0,7.0,75,-99.99,,,-99.99,302.000000,,2013-04-23 01:42:00,
2013-04-22 18:52:00,56.0,49.0,29.86,WNW,283,4.0,6.0,76,-99.99,,,-99.99,271.000000,,2013-04-23 01:52:00,
2013-04-22 19:01:00,57.0,50.0,29.86,West,273,4.0,6.0,76,-99.99,,,-99.99,240.000000,,2013-04-23 02:01:00,
2013-04-22 19:12:00,56.0,49.0,29.86,West,281,5.0,6.0,76,-99.99,,,-99.99,210.000000,,2013-04-23 02:12:00,
2013-04-22 19:21:00,55.0,48.0,29.86,NW,312,5.0,6.0,78,-99.99,,,-99.99,180.000000,,2013-04-23 02:21:00,
2013-04-22 19:32:00,55.0,49.0,29.85,NW,308,3.0,5.0,79,-99.99,,,-99.99,153.000000,,2013-04-23 02:32:00,
2013-04-22 19:42:00,54.0,48.0,29.85,NW,321,3.0,4.0,80,-99.99,,,-99.99,125.000000,,2013-04-23 02:42:00,
2013-04-22 19:52:00,55.0,49.0,29.85,West,272,3.0,4.0,79,-99.99,,,-99.99,98.000000,,2013-04-23 02:52:00,
2013-04-22 20:01:00,54.0,49.0,29.85,WSW,256,2.0,4.0,81,-99.99,,,-99.99,69.000000,,2013-04-23 03:01:00,
2013-04-22 20:11:00,53.0,48.0,29.85,SW,227,2.0,2.0,82,-99.99,,,-99.99,42.000000,,2013-04-23 03:11:00,
2013-04-22 20:21:00,52.0,47.0,29.85,SW,219,3.0,3.0,83,-99.99,,,-99.99,24.000000,,2013-04-23 03:21:00,
2013-04-22 20:33:00,51.0,46.0,29.85,SSW,203,4.0,4.0,84,-99.99,,,-99.99,11.000000,,2013-04-23 03:33:00,
2013-04-22 20:43:00,50.0,46.0,29.84,SSW,199,3.0,3.0,85,-99.99,,,-99.99,5.000000,,2013-04-23 03:43:00,
2013-04-22 20:52:00,49.0,45.0,29.85,WSW,241,4.0,6.0,86,-99.99,,,-99.99,0.000000,,2013-04-23 03:52:00,
2013-04-22 21:03:00,48.0,45.0,29.85,WSW,243,6.0,6.0,87,-99.99,,,-99.99,0.000000,,2013-04-23 04:03:00,
2013-04-22 21:12:00,47.0,44.0,29.85,WSW,246,4.0,6.0,88,-99.99,,,-99.99,0.000000,,2013-04-23 04:12:00,
2013-04-22 21:23:00,47.0,44.0,29.85,SW,230,4.0,6.0,89,-99.99,,,-99.99,0.000000,,2013-04-23 04:23:00,
2013-04-22 21:33:00,47.0,44.0,29.85,SW,222,3.0,5.0,90,-99.99,,,-99.99,0.000000,,2013-04-23 04:33:00,
2013-04-22 21:43:00,48.0,45.0,29.86,SW,221,3.0,4.0,90,-99.99,,,-99.99,0.000000,,2013-04-23 04:43:00,
2013-04-22 21:52:00,48.0,45.0,29.85,SW,215,4.0,5.0,90,-99.99,,,-99.99,0.000000,,2013-04-23 04:52:00,
2013-04-22 22:02:00,48.0,45.0,29.86,SSE,165,4.0,6.0,90,-99.99,,,-99.99,0.000000,,2013-04-23 05:02:00,
2013-04-22 22:12:00,48.0,45.0,29.86,SSE,150,5.0,6.0,90,-99.99,,,-99.99,0.000000,,2013-04-23 05:12:00,
2013-04-22 22:22:00,48.0,45.0,29.86,SE,131,4.0,6.0,90,-99.99,,,-99.99,0.000000,,2013-04-23 05:22:00,
2013-04-22 22:32:00,46.0,44.0,29.87,ESE,114,2.0,4.0,91,-99.99,,,-99.99,0.000000,,2013-04-23 05:32:00,
2013-04-22 22:42:00,47.0,45.0,29.87,SE,141,4.0,5.0,92,-99.99,,,-99.99,0.000000,,2013-04-23 05:42:00,
2013-04-22 22:52:00,48.0,46.0,29.86,SSE,155,4.0,6.0,92,-99.99,,,-99.99,0.000000,,2013-04-23 05:52:00,
2013-04-22 23:01:00,48.0,46.0,29.86,SSE,148,6.0,7.0,93,-99.99,,,-99.99,0.000000,,2013-04-23 06:01:00,
2013-04-22 23:12:00,48.0,46.0,29.86,SE,141,7.0,10.0,93,-99.99,,,-99.99,0.000000,,2013-04-23 06:12:00,
2013-04-22 23:21:00,50.0,48.0,29.86,SE,140,7.0,9.0,94,-99.99,,,-99.99,0.000000,,2013-04-23 06:21:00,
2013-04-22 23:32:00,50.0,48.0,29.86,SE,145,8.0,12.0,93,-99.99,,,-99.99,0.000000,,2013-04-23 06:32:00,
2013-04-22 23:40:00,49.0,47.0,29.85,SSE,152,8.0,10.0,94,-99.99,,,-99.99,0.000000,,2013-04-23 06:40:00,
2013-04-22 23:41:00,50.0,48.0,29.86,SE,140,9.0,11.0,94,-99.99,,,-99.99,0.000000,,2013-04-23 06:41:00,
2013-04-22 23:52:00,50.0,48.0,29.86,SE,139,9.0,12.0,94,-99.99,,,-99.99,0.000000,,2013-04-23 06:52:00,